FW0958 Weather Reports


Display with metric or nautical units.
time (UTC)temp
F
wind
direction
speed
MPH
gust
MPH
rain 1hr
in
rain 24hr
in
rain mn
in
humidity
%
barometer
mb
20260504043252 61 12 0.0 1.0 0.00 0.00 0.00 73 1014.5
20260504042751 61 15 0.0 2.0 0.00 0.00 0.00 73 1014.7
20260504042251 61 14 0.0 2.0 0.00 0.00 0.00 73 1014.6
20260504041752 61 16 0.0 2.0 0.00 0.00 0.00 73 1014.6
20260504041300 61 17 0.0 2.0 0.00 0.00 0.00 73 1014.2
20260504041251 61 16 0.0 2.0 0.00 0.00 0.00 73 1014.9
20260504040753 61 11 0.0 2.0 0.00 0.00 0.00 73 1014.6
20260504040410 61 16 1.0 4.0 0.00 0.00 0.00 73 1014.4
20260504035251 61 15 1.0 4.0 0.00 0.00 0.00 73 1014.4
20260504034750 62 20 1.0 2.0 0.00 0.00 0.00 72 1014.5
20260504034249 62 12 0.0 2.0 0.00 0.00 0.00 72 1014.4
20260504033750 62 342 0.0 1.0 0.00 0.00 0.00 72 1014.5
20260504033249 62 344 0.0 1.0 0.00 0.00 0.00 72 1014.5
20260504032749 62 351 0.0 1.0 0.00 0.00 0.00 72 1014.5
20260504032249 62 29 0.0 1.0 0.00 0.00 0.00 72 1014.5
20260504031749 62 338 0.0 1.0 0.00 0.00 0.00 72 1014.2
20260504031250 62 336 0.0 3.0 0.00 0.00 0.00 72 1014.0
20260504030754 62 29 1.0 3.0 0.00 0.00 0.00 71 1014.0
20260504030749 62 3 1.0 4.0 0.00 0.00 0.00 72 1014.1
20260504030247 62 10 1.0 4.0 0.00 0.00 0.00 71 1014.2
20260504025254 62 328 1.0 3.0 0.00 0.00 0.00 71 1013.8
20260504025249 62 330 1.0 3.0 0.00 0.00 0.00 71 1013.8
20260504024249 62 16 1.0 5.0 0.00 0.00 0.00 70 1013.6
20260504023748 62 7 1.0 5.0 0.00 0.00 0.00 70 1013.7
20260504023249 62 58 1.0 5.0 0.00 0.00 0.00 70 1013.8
20260504022749 62 355 1.0 6.0 0.00 0.00 0.00 69 1013.8
20260504022252 62 333 1.0 7.0 0.00 0.00 0.00 69 1013.9
20260504022247 62 300 1.0 6.0 0.00 0.00 0.00 69 1013.8
20260504021251 63 345 1.0 8.0 0.00 0.00 0.00 69 1013.7
20260504021247 63 295 1.0 7.0 0.00 0.00 0.00 69 1013.9
20260504020745 63 279 1.0 8.0 0.00 0.00 0.00 69 1013.8
20260504015745 63 20 1.0 7.0 0.00 0.00 0.00 69 1013.7
20260504015245 63 332 1.0 8.0 0.00 0.00 0.00 69 1013.7
20260504014746 63 1 1.0 8.0 0.00 0.00 0.00 68 1013.4
20260504014245 63 353 1.0 6.0 0.00 0.00 0.00 68 1013.5
20260504013745 63 47 1.0 6.0 0.00 0.00 0.00 67 1013.6
20260504013249 63 1 2.0 8.0 0.00 0.00 0.00 67 1013.6
20260504013243 64 326 2.0 9.0 0.00 0.00 0.00 67 1013.5
20260504012244 64 7 1.0 9.0 0.00 0.00 0.00 66 1013.4
20260504011752 65 308 2.0 9.0 0.00 0.00 0.00 64 1013.2
20260504011743 64 305 1.0 8.0 0.00 0.00 0.00 66 1013.4
20260504011245 64 324 1.0 8.0 0.00 0.00 0.00 65 1013.3
20260504010908 65 332 1.0 8.0 0.00 0.00 0.00 65 1013.1
20260504010744 65 290 2.0 9.0 0.00 0.00 0.00 65 1013.2
20260504005244 65 352 2.0 14.0 0.00 0.00 0.00 64 1013.1
20260504004743 65 322 3.0 14.0 0.00 0.00 0.00 64 1012.8
20260504004243 65 301 3.0 11.0 0.00 0.00 0.00 63 1012.9
20260504003749 67 313 3.0 11.0 0.00 0.00 0.00 62 1012.5
20260504003743 66 311 3.0 11.0 0.00 0.00 0.00 62 1012.9
20260504002744 67 308 2.0 10.0 0.00 0.00 0.00 61 1012.7
20260504002249 68 12 3.0 12.0 0.00 0.00 0.00 58 1012.4
20260504002243 68 301 3.0 12.0 0.00 0.00 0.00 60 1012.6
20260504001244 69 19 3.0 11.0 0.00 0.00 0.00 58 1012.5
20260504000743 69 255 3.0 12.0 0.00 0.00 0.00 59 1012.3
20260504000243 69 22 3.0 12.0 0.00 0.00 0.00 59 1012.2
20260503235744 70 337 3.0 12.0 0.00 0.00 0.00 58 1012.1
20260503235241 70 349 4.0 12.0 0.00 0.00 0.00 57 1012.3
20260503234746 72 330 3.0 9.0 0.00 0.00 0.00 56 1012.0
20260503234742 71 349 3.0 12.0 0.00 0.00 0.00 57 1012.3
20260503234402 73 297 3.0 10.0 0.00 0.00 0.00 57 1011.9
20260503233240 73 309 3.0 10.0 0.00 0.00 0.00 56 1012.1
20260503232747 72 284 2.0 9.0 0.00 0.00 0.00 57 1012.2
20260503232741 72 333 2.0 7.0 0.00 0.00 0.00 56 1012.1
20260503231741 71 301 3.0 9.0 0.00 0.00 0.00 57 1012.2
20260503231241 71 320 2.0 8.0 0.00 0.00 0.00 58 1012.3
20260503230741 72 309 3.0 10.0 0.00 0.00 0.00 56 1012.4
20260503230242 71 312 3.0 14.0 0.00 0.00 0.00 58 1012.4
20260503225743 71 356 2.0 14.0 0.00 0.00 0.00 58 1012.3
20260503225241 70 300 3.0 8.0 0.00 0.00 0.00 60 1012.5
20260503224741 70 280 3.0 8.0 0.00 0.00 0.00 60 1012.5
20260503224242 70 16 1.0 7.0 0.00 0.00 0.00 60 1012.5
20260503223741 70 316 1.0 8.0 0.00 0.00 0.00 60 1012.6
20260503223242 69 278 1.0 8.0 0.00 0.00 0.00 62 1012.3
20260503222741 69 299 1.0 7.0 0.00 0.00 0.00 63 1012.6
20260503222242 69 270 2.0 7.0 0.00 0.00 0.00 62 1012.8
20260503221741 70 330 3.0 10.0 0.00 0.00 0.00 62 1012.9
20260503221241 70 64 3.0 10.0 0.00 0.00 0.00 62 1012.7
20260503220740 71 292 3.0 9.0 0.00 0.00 0.00 61 1012.8
20260503220240 71 298 3.0 10.0 0.00 0.00 0.00 63 1012.8
20260503215739 69 338 3.0 10.0 0.00 0.00 0.00 63 1013.1
20260503215240 70 332 3.0 9.0 0.00 0.00 0.00 62 1013.2
20260503214738 70 331 3.0 9.0 0.00 0.00 0.00 64 1013.2
20260503214239 70 39 3.0 9.0 0.00 0.00 0.00 63 1013.2
20260503213740 69 39 2.0 10.0 0.00 0.00 0.00 65 1013.1
20260503213240 69 325 3.0 10.0 0.00 0.00 0.00 63 1013.1
20260503212738 71 324 4.0 10.0 0.00 0.00 0.00 63 1013.3
20260503212240 70 303 4.0 10.0 0.00 0.00 0.00 64 1013.2
20260503211739 69 302 3.0 10.0 0.00 0.00 0.00 65 1013.2
20260503211239 69 343 3.0 9.0 0.00 0.00 0.00 65 1013.3
20260503210739 69 8 3.0 12.0 0.00 0.00 0.00 64 1013.3
20260503210735 69 20 2.0 12.0 0.00 0.00 0.00 66 1013.3
20260503205735 68 326 3.0 10.0 0.00 0.00 0.00 66 1013.3
20260503205234 69 345 3.0 10.0 0.00 0.00 0.00 66 1013.4
20260503204735 67 328 3.0 9.0 0.00 0.00 0.00 67 1013.4
20260503204234 67 39 2.0 9.0 0.00 0.00 0.00 68 1013.5
20260503203735 67 332 3.0 8.0 0.00 0.00 0.00 68 1013.4
20260503203235 67 347 3.0 8.0 0.00 0.00 0.00 67 1013.5
20260503202735 68 39 1.0 7.0 0.00 0.00 0.00 67 1013.5
20260503202240 68 306 2.0 10.0 0.00 0.00 0.00 68 1013.6
20260503202235 68 39 1.0 7.0 0.00 0.00 0.00 68 1013.5
20260503201232 68 332 3.0 10.0 0.00 0.00 0.00 67 1013.6
20260503200734 68 325 2.0 8.0 0.00 0.00 0.00 67 1013.6
20260503200233 68 315 2.0 9.0 0.00 0.00 0.00 68 1013.6
20260503195737 68 324 3.0 9.0 0.00 0.00 0.00 68 1013.7
20260503195732 68 340 3.0 9.0 0.00 0.00 0.00 68 1013.7
20260503195353 68 318 3.0 9.0 0.00 0.00 0.00 67 1013.8
20260503194234 68 305 3.0 9.0 0.00 0.00 0.00 67 1013.7
20260503193734 69 309 2.0 8.0 0.00 0.00 0.00 67 1013.7
20260503193237 67 330 4.0 10.0 0.00 0.00 0.00 69 1013.8
20260503193232 68 305 3.0 9.0 0.00 0.00 0.00 68 1013.8
20260503192231 67 328 3.0 10.0 0.00 0.00 0.00 69 1013.7
20260503191731 67 330 3.0 9.0 0.00 0.00 0.00 70 1013.7
20260503191230 67 45 3.0 9.0 0.00 0.00 0.00 70 1013.8
20260503190731 67 3 3.0 8.0 0.00 0.00 0.00 71 1013.9
20260503190236 67 305 4.0 10.0 0.00 0.00 0.00 71 1013.8
20260503190230 67 338 4.0 9.0 0.00 0.00 0.00 71 1013.7
20260503185231 67 329 4.0 12.0 0.00 0.00 0.00 71 1013.7
20260503184730 67 302 3.0 12.0 0.00 0.00 0.00 71 1013.7
20260503184231 68 340 2.0 8.0 0.00 0.00 0.00 71 1013.8
20260503183730 68 314 2.0 8.0 0.00 0.00 0.00 72 1013.8
20260503183228 68 304 2.0 8.0 0.00 0.00 0.00 71 1013.7
20260503182728 68 307 2.0 8.0 0.00 0.00 0.00 70 1013.6
20260503182228 68 301 2.0 7.0 0.00 0.00 0.00 70 1013.7
20260503181730 67 295 2.0 7.0 0.00 0.00 0.00 71 1013.8
20260503181228 67 338 1.0 3.0 0.00 0.00 0.00 72 1013.8
20260503180727 67 280 2.0 7.0 0.00 0.00 0.00 72 1013.7
20260503180228 67 20 1.0 7.0 0.00 0.00 0.00 72 1013.8
20260503175730 67 18 0.0 5.0 0.00 0.00 0.00 73 1013.8
20260503175229 66 271 1.0 3.0 0.00 0.00 0.00 75 1013.9
20260503174733 66 268 1.0 3.0 0.00 0.00 0.00 75 1013.9
20260503174728 66 269 1.0 2.0 0.00 0.00 0.00 75 1013.8
20260503173726 66 268 1.0 5.0 0.00 0.00 0.00 76 1013.8
20260503173226 66 268 1.0 5.0 0.00 0.00 0.00 75 1013.9
20260503172726 66 301 1.0 4.0 0.00 0.00 0.00 76 1013.8
20260503172227 65 299 1.0 4.0 0.00 0.00 0.00 78 1013.8
20260503171726 65 293 1.0 3.0 0.00 0.00 0.00 78 1013.8
20260503171225 65 251 1.0 4.0 0.00 0.00 0.00 78 1013.8
20260503170726 64 261 1.0 4.0 0.00 0.00 0.00 79 1013.9
20260503170226 64 246 1.0 4.0 0.00 0.00 0.00 80 1013.8
20260503150723 60 151 0.0 3.0 0.00 0.00 0.00 90 1013.8
20260503150223 60 164 0.0 2.0 0.00 0.00 0.00 90 1013.8
20260503140219 58 335 0.0 1.0 0.00 0.00 0.00 91 1013.7
20260503131219 58 320 0.0 3.0 0.00 0.00 0.00 91 1012.9
20260503130217 58 320 0.0 3.0 0.00 0.00 0.00 91 1012.7
20260503120215 59 315 0.0 2.0 0.00 0.00 0.00 90 1012.2
20260503110713 60 353 0.0 1.0 0.00 0.00 0.00 89 1012.2
20260503110220 60 353 0.0 2.0 0.00 0.00 0.00 88 1012.2
20260503110214 60 353 0.0 2.0 0.00 0.00 0.00 89 1012.4
20260503100211 60 278 0.0 3.0 0.00 0.00 0.00 87 1012.1
20260503090209 60 284 2.0 5.0 0.00 0.00 0.00 88 1012.4
20260503081210 61 283 1.0 4.0 0.00 0.00 0.00 88 1013.0
20260503080709 61 283 0.0 4.0 0.00 0.00 0.00 88 1012.9
20260503080210 61 250 0.0 0.0 0.00 0.00 0.00 88 1013.2
20260503072710 61 276 1.0 3.0 0.00 0.00 0.00 89 1013.6
20260503072209 61 276 1.0 5.0 0.00 0.00 0.00 89 1013.6
20260503071710 61 284 0.0 5.0 0.00 0.00 0.00 88 1013.6
20260503071208 61 280 0.0 4.0 0.00 0.00 0.00 89 1013.7
20260503070715 61 277 0.0 2.0 0.00 0.00 0.00 88 1013.5
20260503070708 61 279 1.0 4.0 0.00 0.00 0.00 88 1013.6
20260503070208 61 277 0.0 4.0 0.00 0.00 0.00 88 1013.6
20260503060209 60 326 1.0 3.0 0.00 0.00 0.00 88 1013.3
20260503054711 61 313 2.0 7.0 0.00 0.00 0.00 87 1013.2
20260503054705 61 322 2.0 6.0 0.00 0.00 0.00 87 1013.1
20260503054320 61 291 2.0 7.0 0.00 0.00 0.00 87 1013.2
20260503053824 61 324 1.0 7.0 0.00 0.00 0.00 87 1013.2
20260503052704 61 310 0.0 3.0 0.00 0.00 0.00 88 1013.1
20260503052205 61 345 0.0 6.0 0.00 0.00 0.00 88 1013.1
20260503051704 60 341 1.0 6.0 0.00 0.00 0.00 87 1012.9
20260503051203 61 307 0.0 4.0 0.00 0.00 0.00 87 1012.9
20260503050705 60 1 0.0 4.0 0.00 0.00 0.00 87 1012.6
20260503050204 60 337 0.0 2.0 0.00 0.00 0.00 87 1012.5
20260503045703 60 338 0.0 2.0 0.00 0.00 0.00 87 1012.3
20260503045205 60 338 0.0 4.0 0.00 0.00 0.00 87 1012.3
20260503044704 60 345 1.0 4.0 0.00 0.00 0.00 88 1012.2
20260503044211 60 20 0.0 3.0 0.00 0.00 0.00 87 1012.1
20260503044204 60 13 1.0 3.0 0.00 0.00 0.00 88 1012.1